W7KKE-3 Weather Reports


time (UTC)temp
F
wind
direction
speed
knots
gust
knots
rain 1hr
in
rain 24hr
in
rain mn
in
humidity
%
barometer
mb
20260510150651 56 338 0.9 8.7 0.00 0.00 0.00 81 1015.3
20260510150150 56 5 3.5 8.7 0.00 0.00 0.00 82 1015.2
20260510145651 56 323 4.3 8.7 0.00 0.00 0.00 81 1015.2
20260510145151 56 334 5.2 8.7 0.00 0.00 0.00 81 1015.3
20260510144650 56 348 3.5 8.7 0.00 0.00 0.00 81 1015.3
20260510144153 56 347 1.7 7.8 0.00 0.00 0.00 81 1015.2
20260510143651 56 330 3.5 7.8 0.00 0.00 0.00 81 1015.3
20260510143151 56 1 3.5 7.8 0.00 0.00 0.00 82 1015.1
20260510142652 55 352 3.5 7.8 0.00 0.00 0.00 82 1015.0
20260510142151 55 340 3.5 7.8 0.00 0.00 0.00 81 1015.0
20260510141651 55 317 4.3 7.0 0.00 0.00 0.00 81 1015.0
20260510140650 55 331 2.6 7.0 0.00 0.00 0.00 81 1015.1
20260510140151 55 2 4.3 6.1 0.00 0.00 0.00 81 1014.9
20260510135652 55 350 1.7 4.3 0.00 0.00 0.00 81 1014.8
20260510135205 55 357 1.7 5.2 0.00 0.00 0.00 81 1014.9
20260510135151 55 338 0.0 4.3 0.00 0.00 0.00 81 1014.5
20260510134651 55 316 0.0 4.3 0.00 0.00 0.00 81 1014.6
20260510134153 55 341 1.7 5.2 0.00 0.00 0.00 81 1014.6
20260510133651 55 357 1.7 5.2 0.00 0.00 0.00 81 1014.9
20260510133152 55 4 2.6 5.2 0.00 0.00 0.00 81 1014.8
20260510132151 55 183 0.9 0.9 0.00 0.00 0.00 81 1014.6
20260510131653 55 355 0.0 7.0 0.00 0.00 0.00 81 1014.5
20260510131153 55 336 0.0 7.0 0.00 0.00 0.00 81 1014.5
20260510130651 55 340 3.5 7.0 0.00 0.00 0.00 80 1014.4
20260510130151 55 320 2.6 4.3 0.00 0.00 0.00 80 1014.5
20260510125652 55 337 0.0 6.1 0.00 0.00 0.00 80 1014.5
20260510124653 55 340 0.9 6.1 0.00 0.00 0.00 80 1014.7
20260510124153 55 345 2.6 3.5 0.00 0.00 0.00 80 1014.4
20260510123651 55 322 0.0 7.0 0.00 0.00 0.00 80 1014.5
20260510123151 55 343 1.7 7.0 0.00 0.00 0.00 80 1014.4
20260510122652 55 352 3.5 7.0 0.00 0.00 0.00 80 1013.9
20260510122151 55 354 3.5 6.1 0.00 0.00 0.00 80 1014.2
20260510121651 55 11 1.7 6.1 0.00 0.00 0.00 80 1014.5
20260510121153 56 340 2.6 5.2 0.00 0.00 0.00 80 1014.5
20260510120651 56 12 0.0 6.1 0.00 0.00 0.00 80 1014.5
20260510120152 56 323 0.0 6.1 0.00 0.00 0.00 80 1014.4
20260510115651 56 350 0.9 6.1 0.00 0.00 0.00 80 1014.5
20260510115151 56 322 0.9 5.2 0.00 0.00 0.00 80 1014.7
20260510114153 56 344 3.5 7.0 0.00 0.00 0.00 80 1014.7
20260510113651 56 320 0.9 7.0 0.00 0.00 0.00 80 1014.4
20260510112652 56 344 0.0 6.1 0.00 0.00 0.00 80 1014.7
20260510112151 56 322 3.5 8.7 0.00 0.00 0.00 81 1014.5
20260510111651 56 334 1.7 8.7 0.00 0.00 0.00 81 1014.7
20260510111153 56 4 3.5 8.7 0.00 0.00 0.00 81 1014.7
20260510110651 56 331 3.5 3.5 0.00 0.00 0.00 81 1014.8
20260510105652 56 313 2.6 8.7 0.00 0.00 0.00 81 1014.8
20260510105151 56 2 4.3 8.7 0.00 0.00 0.00 81 1014.8
20260510104651 56 355 2.6 7.0 0.00 0.00 0.00 81 1014.9
20260510104151 56 0 2.6 8.7 0.00 0.00 0.00 81 1014.8
20260510103651 56 344 3.5 8.7 0.00 0.00 0.00 82 1014.7
20260510103150 56 320 5.2 8.7 0.00 0.00 0.00 82 1014.8
20260510102650 56 350 3.5 7.8 0.00 0.00 0.00 82 1014.8
20260510102151 56 303 4.3 8.7 0.00 0.00 0.00 82 1014.9
20260510101650 56 324 2.6 8.7 0.00 0.00 0.00 81 1014.9
20260510101155 56 11 3.5 8.7 0.00 0.00 0.00 82 1014.8
20260510100651 56 322 2.6 7.8 0.00 0.00 0.00 82 1014.3
20260510100151 56 327 5.2 7.8 0.00 0.00 0.00 82 1014.3
20260510095151 56 312 3.5 7.0 0.00 0.00 0.00 81 1014.7
20260510094651 56 331 2.6 8.7 0.00 0.00 0.00 81 1014.6
20260510094153 56 4 3.5 8.7 0.00 0.00 0.00 81 1014.5
20260510093651 56 319 3.5 8.7 0.00 0.00 0.00 81 1014.4
20260510092652 56 315 4.3 8.7 0.00 0.00 0.00 81 1014.4
20260510092150 56 333 2.6 8.7 0.00 0.00 0.00 81 1014.4
20260510091153 56 333 3.5 12.2 0.00 0.00 0.00 81 1014.6
20260510090651 56 329 5.2 12.2 0.00 0.00 0.00 81 1014.6
20260510090151 56 320 3.5 12.2 0.00 0.00 0.00 81 1014.6
20260510085652 56 320 7.8 10.4 0.00 0.00 0.00 81 1014.5
20260510085152 56 8 2.6 5.2 0.00 0.00 0.00 81 1014.3
20260510084651 56 16 1.7 5.2 0.00 0.00 0.00 81 1014.3
20260510084153 56 316 0.9 9.6 0.00 0.00 0.00 81 1014.2
20260510083651 56 326 0.0 9.6 0.00 0.00 0.00 81 1014.2
20260510083151 56 337 4.3 9.6 0.00 0.00 0.00 81 1014.4
20260510082652 56 315 4.3 13.9 0.00 0.00 0.00 81 1014.5
20260510082151 56 347 5.2 13.9 0.00 0.00 0.00 81 1014.6
20260510081651 56 341 7.0 13.9 0.00 0.00 0.00 81 1014.6
20260510081153 57 344 8.7 8.7 0.00 0.00 0.00 81 1014.6
20260510080651 57 320 1.7 6.1 0.00 0.00 0.00 81 1014.5
20260510080151 57 323 0.9 10.4 0.00 0.00 0.00 81 1014.5
20260510075652 57 324 3.5 10.4 0.00 0.00 0.00 81 1014.5
20260510075151 57 330 3.5 10.4 0.00 0.00 0.00 81 1014.5
20260510074651 56 320 6.1 11.3 0.00 0.00 0.00 81 1014.3
20260510074153 57 323 5.2 11.3 0.00 0.00 0.00 81 1014.3
20260510073652 57 278 6.1 11.3 0.00 0.00 0.00 81 1014.2
20260510072652 57 336 6.1 9.6 0.00 0.00 0.00 81 1014.1
20260510072151 57 334 6.1 8.7 0.00 0.00 0.00 81 1014.1
20260510071651 57 351 6.1 8.7 0.00 0.00 0.00 81 1014.1
20260510071153 57 316 2.6 8.7 0.00 0.00 0.00 81 1014.2
20260510070650 57 327 1.7 7.8 0.00 0.00 0.00 81 1014.2
20260510070151 57 310 5.2 13.9 0.00 0.00 0.00 81 1014.1
20260510065652 57 340 7.0 13.9 0.00 0.00 0.00 81 1014.1
20260510064651 57 355 7.8 10.4 0.00 0.00 0.00 81 1014.1
20260510063651 57 323 5.2 10.4 0.00 0.00 0.00 81 1014.1
20260510063151 57 316 6.1 10.4 0.00 0.00 0.00 81 1014.1
20260510062652 57 337 7.0 10.4 0.00 0.00 0.00 81 1014.1
20260510062151 57 322 5.2 9.6 0.00 0.00 0.00 81 1014.1
20260510061651 57 316 7.0 9.6 0.00 0.00 0.00 81 1014.0
20260510061153 57 316 3.5 9.6 0.00 0.00 0.00 81 1014.1
20260510060651 57 323 5.2 7.8 0.00 0.00 0.00 81 1014.1
20260510060151 57 352 3.5 7.8 0.00 0.00 0.00 81 1014.1
20260510055650 57 320 3.5 7.0 0.00 0.00 0.00 81 1014.1
20260510055151 57 306 4.3 13.0 0.00 0.00 0.00 81 1014.2
20260510054651 57 324 4.3 13.0 0.00 0.00 0.00 81 1014.3
20260510054153 57 340 3.5 13.0 0.00 0.00 0.00 81 1014.2
20260510053650 57 326 7.8 14.8 0.00 0.00 0.00 81 1014.2
20260510053151 57 309 7.0 14.8 0.00 0.00 0.00 81 1014.3
20260510052652 58 315 7.0 14.8 0.00 0.00 0.00 81 1014.2
20260510052151 57 308 7.8 13.9 0.00 0.00 0.00 81 1014.2
20260510051651 57 337 7.8 13.9 0.00 0.00 0.00 81 1014.2
20260510051153 58 313 6.1 13.0 0.00 0.00 0.00 81 1014.2
20260510050651 58 351 7.0 12.2 0.00 0.00 0.00 81 1014.1
20260510050153 58 299 5.2 12.2 0.00 0.00 0.00 81 1014.2
20260510045151 58 334 8.7 9.6 0.00 0.00 0.00 81 1014.0
20260510044650 58 336 7.0 10.4 0.00 0.00 0.00 81 1013.9
20260510044151 58 322 7.8 10.4 0.00 0.00 0.00 81 1013.9
20260510043651 58 327 5.2 10.4 0.00 0.00 0.00 81 1013.8
20260510043151 58 313 7.0 12.2 0.00 0.00 0.00 81 1013.7
20260510042650 58 327 6.1 12.2 0.00 0.00 0.00 81 1013.7
20260510042151 58 303 7.8 12.2 0.00 0.00 0.00 81 1013.7
20260510041743 58 317 7.8 12.2 0.00 0.00 0.00 81 1013.7
20260510041651 58 317 7.8 12.2 0.00 0.00 0.00 81 1013.7
20260510041153 58 316 5.2 12.2 0.00 0.00 0.00 81 1013.5
20260510040651 58 319 6.1 12.2 0.00 0.00 0.00 81 1013.5
20260510040150 58 327 5.2 13.0 0.00 0.00 0.00 81 1013.4
20260510035151 58 324 7.8 13.0 0.00 0.00 0.00 81 1013.3
20260510034650 58 347 8.7 13.9 0.00 0.00 0.00 81 1013.2
20260510034153 58 309 7.0 13.9 0.00 0.00 0.00 81 1013.1
20260510033650 58 322 7.8 13.9 0.00 0.00 0.00 80 1013.0
20260510033151 58 330 7.0 13.0 0.00 0.00 0.00 80 1013.0
20260510032650 58 347 7.0 13.0 0.00 0.00 0.00 80 1012.9
20260510032151 58 323 7.8 13.0 0.00 0.00 0.00 80 1012.8
20260510031650 58 298 7.8 15.6 0.00 0.00 0.00 80 1012.8
20260510031153 58 320 8.7 15.6 0.00 0.00 0.00 79 1012.7
20260510030650 58 330 7.0 15.6 0.00 0.00 0.00 79 1012.7
20260510030151 58 320 7.8 13.0 0.00 0.00 0.00 79 1012.6
20260510025652 59 315 7.8 13.0 0.00 0.00 0.00 79 1012.6
20260510025151 59 330 7.0 11.3 0.00 0.00 0.00 79 1012.5
20260510024650 59 326 7.0 16.5 0.00 0.00 0.00 79 1012.4
20260510024151 59 308 7.0 16.5 0.00 0.00 0.00 79 1012.4
20260510023650 59 320 8.7 16.5 0.00 0.00 0.00 79 1012.4
20260510023151 59 337 9.6 15.6 0.00 0.00 0.00 78 1012.5
20260510022845 60 338 9.6 17.4 0.00 0.00 0.00 77 1012.7
20260510022151 60 316 11.3 16.5 0.00 0.00 0.00 78 1012.6
20260510021650 60 324 9.6 16.5 0.00 0.00 0.00 77 1012.6
20260510021153 60 350 11.3 17.4 0.00 0.00 0.00 77 1012.7
20260510020650 60 338 9.6 17.4 0.00 0.00 0.00 77 1012.7
20260510020151 61 316 11.3 17.4 0.00 0.00 0.00 76 1012.7
20260510015151 61 326 11.3 16.5 0.00 0.00 0.00 76 1012.5
20260510014650 61 333 8.7 16.5 0.00 0.00 0.00 75 1012.7
20260510014151 62 322 8.7 16.5 0.00 0.00 0.00 75 1012.6
20260510013650 62 316 10.4 16.5 0.00 0.00 0.00 74 1012.7
20260510013150 62 344 10.4 16.5 0.00 0.00 0.00 74 1012.6
20260510012650 62 320 7.8 16.5 0.00 0.00 0.00 74 1012.6
20260510012151 62 285 8.7 16.5 0.00 0.00 0.00 74 1012.6
20260510011650 62 331 10.4 17.4 0.00 0.00 0.00 73 1012.6
20260510011151 63 324 8.7 17.4 0.00 0.00 0.00 73 1012.7
20260510010650 63 341 8.7 17.4 0.00 0.00 0.00 72 1012.7
20260510010150 63 312 8.7 13.0 0.00 0.00 0.00 72 1012.7
20260510005650 63 310 7.0 12.2 0.00 0.00 0.00 72 1012.7
20260510005150 63 331 8.7 16.5 0.00 0.00 0.00 72 1012.7
20260510004650 63 336 8.7 16.5 0.00 0.00 0.00 72 1012.6
20260510004151 63 324 9.6 16.5 0.00 0.00 0.00 71 1012.6
20260510003650 64 313 8.7 17.4 0.00 0.00 0.00 70 1012.7
20260510003151 64 319 8.7 17.4 0.00 0.00 0.00 70 1012.7
20260510002650 64 330 11.3 17.4 0.00 0.00 0.00 69 1012.7
20260510002150 64 319 10.4 17.4 0.00 0.00 0.00 68 1012.7
20260510001650 65 329 10.4 17.4 0.00 0.00 0.00 67 1012.7
20260510001201 65 310 10.4 18.2 0.00 0.00 0.00 67 1012.6
20260510001151 65 310 10.4 18.2 0.00 0.00 0.00 67 1012.6
20260510000651 65 324 9.6 18.2 0.00 0.00 0.00 67 1012.7
20260510000150 65 315 10.4 18.2 0.00 0.00 0.00 67 1012.5
20260509235650 65 319 10.4 16.5 0.00 0.00 0.00 68 1012.6
20260509235151 65 316 9.6 16.5 0.00 0.00 0.00 68 1012.6
20260509234650 64 326 8.7 16.5 0.00 0.00 0.00 69 1012.6
20260509234151 64 345 12.2 19.1 0.00 0.00 0.00 69 1012.6
20260509233650 64 323 11.3 19.1 0.00 0.00 0.00 70 1012.6
20260509233152 64 305 10.4 19.1 0.00 0.00 0.00 71 1012.6
20260509232150 63 331 9.6 20.0 0.00 0.00 0.00 72 1012.7
20260509231650 63 326 10.4 20.0 0.00 0.00 0.00 72 1012.8
20260509231154 63 319 11.3 20.0 0.00 0.00 0.00 72 1012.8
20260509230650 63 322 12.2 19.1 0.00 0.00 0.00 72 1013.0
20260509230150 64 330 13.0 18.2 0.00 0.00 0.00 71 1013.1
20260509225652 64 323 12.2 20.9 0.00 0.00 0.00 71 1013.1
20260509225150 64 312 12.2 20.9 0.00 0.00 0.00 70 1013.1
20260509224651 65 334 10.4 20.9 0.00 0.00 0.00 70 1013.2
20260509224153 65 317 11.3 17.4 0.00 0.00 0.00 68 1013.1
20260509223651 66 330 11.3 17.4 0.00 0.00 0.00 68 1013.2
20260509223150 66 312 10.4 16.5 0.00 0.00 0.00 68 1013.0
20260509222650 66 334 8.7 16.5 0.00 0.00 0.00 67 1012.9
20260509222150 66 324 9.6 16.5 0.00 0.00 0.00 66 1013.0
20260509221651 66 351 9.6 13.9 0.00 0.00 0.00 67 1012.8
20260509221151 66 309 7.8 13.9 0.00 0.00 0.00 68 1012.9
20260509220651 67 316 9.6 13.9 0.00 0.00 0.00 67 1013.1
20260509220151 67 310 9.6 12.2 0.00 0.00 0.00 67 1013.2
20260509215652 66 317 8.7 14.8 0.00 0.00 0.00 67 1013.3
20260509215150 66 326 8.7 14.8 0.00 0.00 0.00 67 1013.4
20260509214651 66 333 9.6 14.8 0.00 0.00 0.00 69 1013.6
20260509214151 66 298 7.8 16.5 0.00 0.00 0.00 69 1013.6
20260509213651 66 327 7.0 16.5 0.00 0.00 0.00 70 1013.8
20260509213151 65 317 9.6 16.5 0.00 0.00 0.00 70 1013.8
20260509212650 65 334 11.3 19.1 0.00 0.00 0.00 70 1014.0
20260509212151 66 324 10.4 19.1 0.00 0.00 0.00 71 1014.0
20260509211651 65 326 9.6 19.1 0.00 0.00 0.00 70 1014.0
20260509211153 66 327 11.3 17.4 0.00 0.00 0.00 69 1014.0
20260509210650 66 331 9.6 17.4 0.00 0.00 0.00 69 1014.0
20260509210150 66 303 11.3 16.5 0.00 0.00 0.00 69 1014.1
20260509205650 66 326 8.7 18.2 0.00 0.00 0.00 69 1014.1
20260509205150 66 336 12.2 18.2 0.00 0.00 0.00 69 1014.1
20260509204650 66 330 8.7 18.2 0.00 0.00 0.00 70 1014.2
20260509204151 66 317 9.6 22.6 0.00 0.00 0.00 71 1014.2
20260509203651 66 312 11.3 22.6 0.00 0.00 0.00 71 1014.3
20260509203150 66 310 11.3 22.6 0.00 0.00 0.00 70 1014.3
20260509202652 66 306 11.3 18.2 0.00 0.00 0.00 70 1014.4
20260509202150 66 303 12.2 20.9 0.00 0.00 0.00 70 1014.3
20260509201651 66 326 13.0 20.9 0.00 0.00 0.00 70 1014.4
20260509201150 66 1 10.4 20.9 0.00 0.00 0.00 71 1014.3
20260509200651 66 331 9.6 18.2 0.00 0.00 0.00 71 1014.4
20260509200151 66 324 13.0 18.2 0.00 0.00 0.00 71 1014.5
20260509195650 67 344 11.3 18.2 0.00 0.00 0.00 70 1014.5
20260509195151 67 323 10.4 16.5 0.00 0.00 0.00 69 1014.6
20260509194651 67 320 8.7 15.6 0.00 0.00 0.00 69 1014.6
20260509194150 67 308 8.7 14.8 0.00 0.00 0.00 70 1014.6
20260509193650 67 327 9.6 14.8 0.00 0.00 0.00 69 1014.7
20260509193150 67 326 7.0 13.0 0.00 0.00 0.00 70 1014.8
20260509192650 66 327 6.1 13.0 0.00 0.00 0.00 72 1014.8
20260509192150 66 330 6.1 13.0 0.00 0.00 0.00 71 1015.0
20260509191651 66 329 7.0 14.8 0.00 0.00 0.00 70 1015.1
20260509191153 66 333 7.0 14.8 0.00 0.00 0.00 71 1015.0
20260509190650 66 324 6.1 14.8 0.00 0.00 0.00 73 1015.1
20260509185650 65 333 7.8 15.6 0.00 0.00 0.00 72 1015.2
20260509185151 65 338 8.7 15.6 0.00 0.00 0.00 72 1015.3
20260509184649 65 322 8.7 15.6 0.00 0.00 0.00 72 1015.4
20260509184151 64 323 7.8 13.9 0.00 0.00 0.00 72 1015.4
20260509183649 64 323 9.6 12.2 0.00 0.00 0.00 73 1015.4
20260509183150 64 333 7.8 15.6 0.00 0.00 0.00 74 1015.4
20260509182650 64 324 9.6 15.6 0.00 0.00 0.00 74 1015.5
20260509182150 64 317 9.6 15.6 0.00 0.00 0.00 75 1015.5
20260509181650 64 320 9.6 15.6 0.00 0.00 0.00 74 1015.5
20260509180649 64 331 10.4 15.6 0.00 0.00 0.00 75 1015.6
20260509180149 64 334 9.6 13.9 0.00 0.00 0.00 75 1015.5
20260509175650 64 310 9.6 11.3 0.00 0.00 0.00 75 1015.5
20260509175149 64 305 7.0 11.3 0.00 0.00 0.00 76 1015.5
20260509174649 64 316 7.0 11.3 0.00 0.00 0.00 76 1015.4
20260509174150 64 296 5.2 9.6 0.00 0.00 0.00 77 1015.4
20260509173650 64 322 5.2 9.6 0.00 0.00 0.00 76 1015.6
20260509173151 64 334 7.0 8.7 0.00 0.00 0.00 76 1015.6
20260509172652 63 298 4.3 8.7 0.00 0.00 0.00 77 1015.8
20260509172149 63 277 5.2 7.8 0.00 0.00 0.00 76 1015.8
20260509171650 63 282 4.3 6.1 0.00 0.00 0.00 78 1015.6
20260509171152 63 292 2.6 6.1 0.00 0.00 0.00 78 1015.5
20260509170649 62 291 1.7 6.1 0.00 0.00 0.00 78 1015.6
20260509170149 62 292 2.6 5.2 0.00 0.00 0.00 79 1015.6
20260509165650 61 285 3.5 5.2 0.00 0.00 0.00 80 1015.6
20260509165149 61 289 2.6 5.2 0.00 0.00 0.00 80 1015.7
20260509164649 60 292 2.6 5.2 0.00 0.00 0.00 80 1015.7
20260509164153 60 299 3.5 5.2 0.00 0.00 0.00 81 1015.7
20260509163649 59 299 3.5 5.2 0.00 0.00 0.00 80 1015.8
20260509163149 59 305 4.3 5.2 0.00 0.00 0.00 81 1015.8
20260509162650 59 305 0.9 5.2 0.00 0.00 0.00 81 1015.7
20260509162150 59 305 3.5 4.3 0.00 0.00 0.00 82 1015.7
20260509161650 58 313 1.7 3.5 0.00 0.00 0.00 83 1015.7
20260509161150 58 296 2.6 2.6 0.00 0.00 0.00 84 1015.7
20260509160149 57 289 0.0 2.6 0.00 0.00 0.00 85 1015.7
20260509155650 57 277 0.9 0.9 0.00 0.00 0.00 85 1015.6
20260509155149 56 0 0.0 0.0 0.00 0.00 0.00 86 1015.6
20260509153649 55 296 0.0 0.9 0.00 0.00 0.00 86 1015.8
20260509153149 55 0 0.0 0.0 0.00 0.00 0.00 87 1015.8
20260509152650 55 0 0.0 1.7 0.00 0.00 0.00 87 1015.9
20260509152153 54 296 0.0 1.7 0.00 0.00 0.00 87 1016.0
20260509151650 54 306 0.0 1.7 0.00 0.00 0.00 87 1015.9